Weather History for New Ulm, MN

Change the Weather History Date:

Sunday, October 28, 2012

  Actual Average Record
Temperature  
Mean Temperature 38 °F -  
Max Temperature 48 °F 55 °F 77 °F (1983)
Min Temperature 28 °F 33 °F 14 °F (1967)
Degree Days  
Heating Degree Days 27    
Moisture  
Dew Point 27 °F    
Average Humidity 67    
Maximum Humidity 86    
Minimum Humidity 50    
Precipitation  
Precipitation 0.00 in - - ()
Sea Level Pressure  
Sea Level Pressure 30.28 in    
Wind  
Wind Speed 7 mph (SSE)    
Max Wind Speed 15 mph    
Max Gust Speed 18 mph    
Visibility 10 miles    
Events      
Averages and records for this station are not official NWS values.
T = Trace of Precipitation, MM = Missing Value Source: NWS Daily Summary

Daily Weather History Graph

Daily Weather History Graph

Search for Another Location

Airport:

Trip Planner

Search our weather history database for the weather conditions in past years. The results will help you decide how hot, cold, wet, or windy it might be!

Date:

Astronomy

Oct. 28, 2012 Rise Set
Actual Time 7:50 AM CDT 6:12 PM CDT
Civil Twilight 7:20 AM CDT 6:42 PM CDT
Nautical Twilight 6:46 AM CDT 7:16 PM CDT
Astronomical Twilight 6:12 AM CDT 7:50 PM CDT
Moon 5:30 PM CDT (10/28) 6:43 AM CDT (10/28)
Length of Visible Light 11h 21m
Length of Day
10h 21m
Waxing Gibbous, 99% of the Moon is Illuminated
Oct 28
Waxing Gibbous
Oct 29
Full
Nov 6
Last Quarter
Nov 13
New
Nov 20
First Quarter

Hourly Weather History & Observations

Time (CDT) Temp. Windchill Dew Point Humidity Pressure Visibility Wind Dir Wind Speed Gust Speed Precip Events Conditions
12:12 AM 32.0 °F 27.5 °F 24.8 °F 75% 30.31 in 10.0 mi SSE 4.6 mph - N/A   Clear
12:33 AM 32.0 °F 27.5 °F 24.8 °F 75% 30.31 in 10.0 mi SSE 4.6 mph - N/A   Clear
12:53 AM 30.2 °F 24.3 °F 24.8 °F 80% 30.31 in 10.0 mi SSE 5.8 mph - N/A   Clear
1:12 AM 30.2 °F 25.4 °F 24.8 °F 80% 30.31 in 10.0 mi SSE 4.6 mph - N/A   Clear
1:33 AM 30.2 °F 25.4 °F 23.0 °F 75% 30.31 in 10.0 mi SSE 4.6 mph - N/A   Scattered Clouds
1:53 AM 30.2 °F 25.4 °F 24.8 °F 80% 30.31 in 10.0 mi SSE 4.6 mph - N/A   Mostly Cloudy
2:13 AM 32.0 °F 27.5 °F 24.8 °F 75% 30.31 in 10.0 mi SSE 4.6 mph - N/A   Overcast
2:33 AM 32.0 °F 27.5 °F 24.8 °F 75% 30.31 in 10.0 mi SSE 4.6 mph - N/A   Mostly Cloudy
2:53 AM 30.2 °F 26.7 °F 24.8 °F 80% 30.31 in 10.0 mi SSE 3.5 mph - N/A   Mostly Cloudy
3:13 AM 30.2 °F 25.4 °F 24.8 °F 80% 30.30 in 10.0 mi SSE 4.6 mph - N/A   Mostly Cloudy
3:33 AM 30.2 °F 25.4 °F 24.8 °F 80% 30.30 in 10.0 mi SSE 4.6 mph - N/A   Overcast
3:53 AM 30.2 °F 25.4 °F 24.8 °F 80% 30.30 in 10.0 mi SSE 4.6 mph - N/A   Overcast
4:13 AM 28.4 °F 22.2 °F 23.0 °F 80% 30.30 in 10.0 mi SSE 5.8 mph - N/A   Scattered Clouds
4:33 AM 28.4 °F 22.2 °F 24.8 °F 86% 30.30 in 10.0 mi SSE 5.8 mph - N/A   Mostly Cloudy
4:52 AM 30.2 °F 24.3 °F 24.8 °F 80% 30.30 in 10.0 mi SSE 5.8 mph - N/A   Overcast
5:13 AM 30.2 °F 24.3 °F 24.8 °F 80% 30.29 in 10.0 mi SSE 5.8 mph - N/A   Overcast
5:33 AM 30.2 °F 24.3 °F 26.6 °F 86% 30.30 in 10.0 mi SSE 5.8 mph - N/A   Overcast
5:52 AM 32.0 °F 25.6 °F 26.6 °F 80% 30.30 in 10.0 mi SSE 6.9 mph - N/A   Overcast
6:13 AM 32.0 °F 25.6 °F 26.6 °F 80% 30.30 in 10.0 mi SSE 6.9 mph - N/A   Overcast
6:33 AM 32.0 °F 25.6 °F 26.6 °F 80% 30.30 in 10.0 mi SSE 6.9 mph - N/A   Overcast
6:52 AM 33.8 °F 27.7 °F 26.6 °F 75% 30.30 in 10.0 mi South 6.9 mph - N/A   Overcast
7:13 AM 33.8 °F 27.7 °F 26.6 °F 75% 30.30 in 10.0 mi SSE 6.9 mph - N/A   Overcast
7:33 AM 33.8 °F 27.7 °F 26.6 °F 75% 30.31 in 10.0 mi SSE 6.9 mph - N/A   Overcast
7:52 AM 33.8 °F 27.7 °F 26.6 °F 75% 30.31 in 10.0 mi SSE 6.9 mph - N/A   Overcast
8:13 AM 33.8 °F 27.7 °F 26.6 °F 75% 30.31 in 10.0 mi SSE 6.9 mph - N/A   Mostly Cloudy
8:33 AM 33.8 °F 28.6 °F 26.6 °F 75% 30.32 in 10.0 mi SSE 5.8 mph - N/A   Overcast
8:52 AM 33.8 °F 28.6 °F 26.6 °F 75% 30.32 in 10.0 mi SSE 5.8 mph - N/A   Mostly Cloudy
9:33 AM 35.6 °F 29.9 °F 26.6 °F 70% 30.32 in 10.0 mi SSE 6.9 mph - N/A   Scattered Clouds
9:52 AM 35.6 °F 29.9 °F 26.6 °F 70% 30.32 in 10.0 mi SSE 6.9 mph - N/A   Scattered Clouds
10:13 AM 35.6 °F 28.0 °F 26.6 °F 70% 30.31 in 10.0 mi South 10.4 mph - N/A   Scattered Clouds
10:33 AM 37.4 °F 29.8 °F 26.6 °F 65% 30.31 in 10.0 mi South 11.5 mph - N/A   Mostly Cloudy
10:53 AM 37.4 °F 29.8 °F 28.4 °F 70% 30.31 in 10.0 mi South 11.5 mph - N/A   Scattered Clouds
11:13 AM 37.4 °F 29.3 °F 28.4 °F 70% 30.31 in 10.0 mi South 12.7 mph - N/A   Scattered Clouds
11:33 AM 39.2 °F 32.5 °F 28.4 °F 65% 30.30 in 10.0 mi South 10.4 mph - N/A   Scattered Clouds
11:53 AM 39.2 °F 32.0 °F 28.4 °F 65% 30.31 in 10.0 mi South 11.5 mph - N/A   Scattered Clouds
12:13 PM 41.0 °F 33.5 °F 28.4 °F 61% 30.30 in 10.0 mi South 13.8 mph - N/A   Scattered Clouds
12:33 PM 42.8 °F 36.6 °F 28.4 °F 57% 30.29 in 10.0 mi SSE 11.5 mph - N/A   Scattered Clouds
12:53 PM 44.6 °F 38.4 °F 28.4 °F 53% 30.28 in 10.0 mi SSE 12.7 mph - N/A   Clear
1:13 PM 44.6 °F 37.8 °F 28.4 °F 53% 30.27 in 10.0 mi South 15.0 mph - N/A   Clear
1:32 PM 46.4 °F 40.7 °F 30.2 °F 53% 30.27 in 10.0 mi SSE 12.7 mph - N/A   Clear
1:53 PM 46.4 °F 41.1 °F 28.4 °F 50% 30.27 in 10.0 mi South 11.5 mph - N/A   Clear
2:13 PM 46.4 °F 40.1 °F 30.2 °F 53% 30.25 in 10.0 mi South 15.0 mph 18.4 mph N/A   Scattered Clouds
2:32 PM 46.4 °F 41.1 °F 30.2 °F 53% 30.26 in 10.0 mi SSE 11.5 mph - N/A   Clear
2:53 PM 46.4 °F 41.1 °F 30.2 °F 53% 30.25 in 10.0 mi SSE 11.5 mph - N/A   Scattered Clouds
3:13 PM 48.2 °F - 30.2 °F 50% 30.24 in 10.0 mi South 10.4 mph 16.1 mph N/A   Scattered Clouds
3:32 PM 46.4 °F 41.5 °F 30.2 °F 53% 30.24 in 10.0 mi SSE 10.4 mph - N/A   Mostly Cloudy
3:53 PM 48.2 °F - 30.2 °F 50% 30.24 in 10.0 mi SSE 9.2 mph - N/A   Mostly Cloudy
4:13 PM 48.2 °F - 30.2 °F 50% 30.24 in 10.0 mi SSE 11.5 mph - N/A   Scattered Clouds
4:32 PM 48.2 °F - 30.2 °F 50% 30.24 in 10.0 mi SSE 10.4 mph - N/A   Mostly Cloudy
4:53 PM 46.4 °F 41.5 °F 30.2 °F 53% 30.23 in 10.0 mi SSE 10.4 mph - N/A   Overcast
5:13 PM 46.4 °F 41.5 °F 30.2 °F 53% 30.23 in 10.0 mi SSE 10.4 mph - N/A   Scattered Clouds
5:32 PM 44.6 °F 39.7 °F 30.2 °F 57% 30.23 in 10.0 mi SSE 9.2 mph - N/A   Clear
5:53 PM 44.6 °F 40.7 °F 30.2 °F 57% 30.24 in 10.0 mi SSE 6.9 mph - N/A   Scattered Clouds
6:13 PM 44.6 °F 40.7 °F 30.2 °F 57% 30.24 in 10.0 mi SSE 6.9 mph - N/A   Mostly Cloudy
6:32 PM 44.6 °F 40.7 °F 30.2 °F 57% 30.24 in 10.0 mi SE 6.9 mph - N/A   Scattered Clouds
6:53 PM 42.8 °F 38.0 °F 30.2 °F 61% 30.24 in 10.0 mi SE 8.1 mph - N/A   Clear
7:13 PM 42.8 °F 38.0 °F 30.2 °F 61% 30.24 in 10.0 mi SE 8.1 mph - N/A   Clear
7:32 PM 42.8 °F 38.0 °F 30.2 °F 61% 30.24 in 10.0 mi SE 8.1 mph - N/A   Mostly Cloudy
7:53 PM 42.8 °F 38.0 °F 30.2 °F 61% 30.25 in 10.0 mi SE 8.1 mph - N/A   Scattered Clouds
8:13 PM 41.0 °F 35.8 °F 30.2 °F 65% 30.25 in 10.0 mi SE 8.1 mph - N/A   Clear
8:53 PM 42.8 °F 37.5 °F 28.4 °F 57% 30.25 in 10.0 mi SE 9.2 mph - N/A   Mostly Cloudy
9:13 PM 41.0 °F 35.2 °F 28.4 °F 61% 30.26 in 10.0 mi SE 9.2 mph - N/A   Scattered Clouds
9:33 PM 39.2 °F 33.0 °F 28.4 °F 65% 30.26 in 10.0 mi SE 9.2 mph - N/A   Clear
9:53 PM 39.2 °F 32.5 °F 26.6 °F 61% 30.26 in 10.0 mi SE 10.4 mph - N/A   Clear
10:12 PM 39.2 °F 32.5 °F 26.6 °F 61% 30.26 in 10.0 mi SSE 10.4 mph - N/A   Clear
10:53 PM 37.4 °F 30.8 °F 26.6 °F 65% 30.26 in 10.0 mi SSE 9.2 mph - N/A   Clear
11:12 PM 37.4 °F 30.8 °F 26.6 °F 65% 30.26 in 10.0 mi SSE 9.2 mph - N/A   Clear
11:33 PM 35.6 °F 29.2 °F 26.6 °F 70% 30.27 in 10.0 mi SE 8.1 mph - N/A   Clear
11:53 PM 35.6 °F 29.2 °F 26.6 °F 70% 30.27 in 10.0 mi SSE 8.1 mph - N/A   Clear